Regional Weather Roundup
Issued by NWS Newport/Morehead, NC

Current Version | Previous Version | Graphics & Text | Print | Product List | Glossary Off
Versions: 1 2 3 4 5 6 7 8 9 10 11 12 13 14 15 16 17 18 19 20 21 22 23 24 25 26 27 28 29 30 31 32 33 34 35 36 37 38 39 40 41 42 43 44 45 46 47 48 49 50

000
ASUS42 KMHX 100813
RWRMHX
WEATHER ROUNDUP FOR EASTERN NORTH CAROLINA
NATIONAL WEATHER SERVICE NEWPORT/MOREHEAD CITY NC
300 AM EST WED FEB 10 2016

NOTE: "FAIR" INDICATES FEW OR NO CLOUDS BELOW 12,000 FEET
WITH NO SIGNIFICANT WEATHER AND/OR OBSTRUCTIONS TO VISIBILITY

NCZ015>017-031-032-045>047-102-103-100900-
NORTH COAST

CITY           SKY/WX    TMP DP  RH WIND       PRES   REMARKS
EDENTON        CLEAR     34  19  54 NW13G20   29.80R
ELIZABETH CITY MOCLDY    33  19  56 W16G23    29.78R
KITTY HAWK     SUNNY     36  20  52 W15G26    29.75R
MANTEO         PTCLDY    35  21  56 W10G20    29.78R

$$

NCZ045>047-081-094-103-104-100900-
CENTRAL COAST

CITY           SKY/WX    TMP DP  RH WIND       PRES   REMARKS
FRISCO         CLOUDY    39  21  48 W14G30    29.78F
SWANQUARTER      N/A     36 N/A N/A W9G26     29.77S

$$

NCZ095-097-098-100-101-100900-
SOUTHERN COAST

CITY           SKY/WX    TMP DP  RH WIND       PRES   REMARKS
BEAUFORT       CLOUDY    37  20  50 W22G28    29.83R
CEDAR ISLAND     N/A     37 N/A N/A SW9G29    29.85S
JACKSONVILLE   CLOUDY    34  12  40 NW13      29.86R
PINEY ISLAND   CLOUDY   N/A N/A N/A W22       29.81S
WILMINGTON     CLOUDY    37  16  42 W12G22    29.87S


$$

NCZ011>013-027>030-043-044-078>080-089-090>093-098-100900-
COASTAL PLAIN

CITY           SKY/WX    TMP DP  RH WIND       PRES   REMARKS
AHOSKIE        CLEAR     28  14  56 CALM      29.80S
CLINTON        CLEAR     30  17  57 W6        29.88S
ELIZABETHTOWN  CLOUDY    33  13  43 W6        29.88S
GOLDSBORO      CLEAR     28  16  59 W9        29.84R
GREENVILLE     CLEAR     32  18  55 W6        29.86S
HAVELOCK       CLOUDY    36  16  44 W16       29.84S
KENANSVILLE    CLEAR     30  13  48 W3        29.87S
KINSTON        PTCLDY    29  17  59 W5        29.86S
NEW BERN       CLOUDY    33  14  45 W13G22    29.85R
RICHLANDS      CLOUDY    34  10  37 W7G16     29.87R
ROCKY MOUNT    PTCLDY    28  15  58 SW6       29.83R
WASHINGTON     CLEAR     31  16  53 W8        29.83R
WHITEVILLE     CLOUDY    35  16  46 CALM      29.88S

$$

AMZ130-135-150-152-154-156-158-170-250-252-270-ANZ085-086-088-633-658-670-100900-
MARINE OBSERVATIONS

STATION/POSITION TIME  TEMP    WIND        PRES    WAVE   SWELL
                       AIR SEA DIR/SP/G            HT/PER HT/PER
                 (UTC) (F)     (DEG/KT/KT) (MB)    (FT/S) (FT/S)
CHESAPEAKE LIGHT 0800   35     270/ 22/ 25 1007.1
64 E VA BEACH    0750   41 50  260/ 21/ 25 1005.8    9/14   7/14
DUCK             0700   37     270/ 18/ 21 1006.8
2 E DUCK         0711      44                N/A     4/14   3/14
OREGON INLET     0700   38 46  250/ 12/ 16 1007.9
13E OREGON INLT  0800      47                N/A     7/14   5/14
HATTERAS CG      0700   41 52  260/ 19/ 25 1008.2
DIAMOND BUOY     0750   45 73  290/ 23/ 31 1007.6    9/15   5/15
CAPE LOOKOUT     NOT AVBL
BEAUFORT LAB     0700   39 47  300/  9/ 17 1008.9
30 SE NEW RVR IN 0708   44 60              1009.8
30 SE NEW RVR IN 0755      60                N/A     9/ 9   3/11
27 SE WRIGHTSVLE 0708   42 59  290/ 21/ 27 1009.3
5 SE WRIGHTSVLE  0708   40 51  290/ 17/ 21 1011.2
225 S CAPE HAT   0750   53 68  290/ 23/ 27   N/A    16/11  13/11
41 SE CHARLESTON 0750   42 64  280/ 29/ 35 1013.6    8/ 6

$$



USA.gov is the U.S. government's official web portal to all federal, state and local government web resources and services.